Weather in Port Talbot

United Kingdom     51°35′10″N   3°47′16″W
temp.,
°C
wind,
m/s
gust,
m/s
humid.,
%
clouds,
%
prec.,
mm/h
press.,
hPa
HPBL,
m
6 march, sat
sat600:00+2ene46720 0.0 1035241
03:00+2e45710 0.0 1035221
06:00+1ene34760 0.0 1035199
09:00+3e45690 0.0 1035410
12:00+5ese45610 0.0 1035975
15:00+6se34560 0.0 1033949
18:00+5e12600 0.0 1032314
21:00+4nne33690 0.0 1032131
7 march, sun
sun700:00+3ene22710 0.0 1032107
03:00+2e22740 0.0 1030116
06:00+2ene11730 0.0 1030106
09:00+3nw116914 0.0 1030254
12:00+5w326510 0.0 1029462
15:00+5wsw55700 0.0 1027408
18:00+5wnw57780 0.0 1026372
21:00+4nnw45730 0.0 1027205
8 march, mon
mon800:00+3nnw34720 0.0 1026199
03:00+3nw23710 0.0 1025205
06:00+3nw34730 0.0 1025248
09:00+4nw247337 0.0 1024295
12:00+6w457143 0.0 1024576
15:00+7w667163 0.0 1022897
18:00+6w578169 0.0 1022662
21:00+7w5782100 0.0 1021594
9 march, tue
tue900:00+7wsw5886100 0.0 1021500
03:00+7sw7990100 0.2 1019475
06:00+7sw81193100 1.5 1018384
09:00+7sw61093100 0.3 1018298
12:00+8wsw579399 0.4 1018272
15:00+8wsw71192100 0.1 1015330
18:00+8sw71292100 0.1 1014365
21:00+8ssw81492100 0.2 1014454
10 march, wed
wed1000:00+8ssw91793100 1.9 1011744
03:00+9sw122093100 3.9 1008700
06:00+9sw142296100 12.9 1006582
09:00+9sw132196100 6.0 1005586
12:00+10sw122192100 7.1 1004561
15:00+10sw132392100 0.4 1001662
18:00+10sw162691100 0.8 999857
21:00+9wsw182677100 0.4 9991340